カタログに戻る

STARLINK-35990

運用中通信VLEO
NORAD 66792·PAYLOAD·🇺🇸 United States

打ち上げ Dec 1, 2025 から Cape Canaveral Space Force Station

Loading…

次のパス (今後24時間)

TLE

最新Source: CelesTrak SupGP

元期: Sep 14, 2026, 22:46 UTC

1 66792C 25278B   26257.94909722 -.00009416  00000+0 -34111-3 0  2579
2 66792  42.9991 125.3020 0001423 271.6533 193.1307 15.27575433    13

AllMySatでSTARLINK-35990をリアルタイム追跡

Download on the App Store